Year,Month,Day,Hour,Minute,Value (Times are PST for windspeed in km/hr)
2014,06,17,00,00,16.60
2014,06,17,00,01,16.50
2014,06,17,00,02,16.20
2014,06,17,00,03,16.30
2014,06,17,00,04,16.80
2014,06,17,00,05,15.20
2014,06,17,00,06,17.70
2014,06,17,00,07,15.10
2014,06,17,00,08,12.10
2014,06,17,00,09,17.30
2014,06,17,00,10,17.20
2014,06,17,00,11,16.00
2014,06,17,00,12,14.00
2014,06,17,00,13,14.20
2014,06,17,00,14,15.50
2014,06,17,00,15,15.30
2014,06,17,00,16,16.40
2014,06,17,00,17,13.70
2014,06,17,00,18,12.50
2014,06,17,00,19,15.20
2014,06,17,00,20,16.10
2014,06,17,00,21,17.50
2014,06,17,00,22,16.10
2014,06,17,00,23,18.30
2014,06,17,00,24,18.90
2014,06,17,00,25,19.50
2014,06,17,00,26,19.80
2014,06,17,00,27,18.40
2014,06,17,00,28,14.60
2014,06,17,00,29,15.60
2014,06,17,00,30,18.50
2014,06,17,00,31,19.10
2014,06,17,00,32,18.90
2014,06,17,00,33,21.00
2014,06,17,00,34,16.90
2014,06,17,00,35,16.30
2014,06,17,00,36,16.70
2014,06,17,00,37,17.40
2014,06,17,00,38,19.30
2014,06,17,00,39,18.30
2014,06,17,00,40,17.80
2014,06,17,00,41,19.50
2014,06,17,00,42,22.30
2014,06,17,00,43,20.50
2014,06,17,00,44,20.10
2014,06,17,00,45,18.20
2014,06,17,00,46,18.10
2014,06,17,00,47,15.80
2014,06,17,00,48,18.50
2014,06,17,00,49,16.10
2014,06,17,00,50,15.30
2014,06,17,00,51,15.40
2014,06,17,00,52,18.50
2014,06,17,00,53,16.40
2014,06,17,00,54,19.40
2014,06,17,00,55,18.20
2014,06,17,00,56,18.20
2014,06,17,00,57,19.30
2014,06,17,00,58,20.80
2014,06,17,00,59,19.50
2014,06,17,01,00,19.60
2014,06,17,01,01,20.50
2014,06,17,01,02,19.20
2014,06,17,01,03,21.60
2014,06,17,01,04,21.40
2014,06,17,01,05,20.40
2014,06,17,01,06,17.60
2014,06,17,01,07,15.60
2014,06,17,01,08,20.10
2014,06,17,01,09,17.10
2014,06,17,01,10,16.30
2014,06,17,01,11,22.50
2014,06,17,01,12,25.00
2014,06,17,01,13,20.80
2014,06,17,01,14,21.90
2014,06,17,01,15,23.10
2014,06,17,01,16,21.60
2014,06,17,01,17,21.20
2014,06,17,01,18,22.60
2014,06,17,01,19,23.50
2014,06,17,01,20,24.00
2014,06,17,01,21,24.10
2014,06,17,01,22,24.40
2014,06,17,01,23,21.80
2014,06,17,01,24,18.50
2014,06,17,01,25,23.90
2014,06,17,01,26,24.30
2014,06,17,01,27,24.70
2014,06,17,01,28,25.80
2014,06,17,01,29,21.40
2014,06,17,01,30,21.50
2014,06,17,01,31,20.30
2014,06,17,01,32,23.10
2014,06,17,01,33,22.70
2014,06,17,01,34,21.10
2014,06,17,01,35,20.10
2014,06,17,01,36,18.00
2014,06,17,01,37,20.40
2014,06,17,01,38,21.10
2014,06,17,01,39,20.60
2014,06,17,01,40,20.60
2014,06,17,01,41,21.20
2014,06,17,01,42,22.10
2014,06,17,01,43,22.70
2014,06,17,01,44,23.40
2014,06,17,01,45,20.80
2014,06,17,01,46,18.80
2014,06,17,01,47,22.40
2014,06,17,01,48,23.10
2014,06,17,01,49,19.40
2014,06,17,01,50,20.20
2014,06,17,01,51,21.10
2014,06,17,01,52,20.30
2014,06,17,01,53,17.50
2014,06,17,01,54,16.90
2014,06,17,01,55,18.30
2014,06,17,01,56,16.60
2014,06,17,01,57,14.90
2014,06,17,01,58,18.00
2014,06,17,01,59,17.00
2014,06,17,02,00,12.80
2014,06,17,02,01,13.90
2014,06,17,02,02,16.30
2014,06,17,02,03,14.20
2014,06,17,02,04,13.90
2014,06,17,02,05,13.90
2014,06,17,02,06,13.70
2014,06,17,02,07,15.10
2014,06,17,02,08,13.90
2014,06,17,02,09,11.60
2014,06,17,02,10,11.60
2014,06,17,02,11,12.80
2014,06,17,02,12,14.30
2014,06,17,02,13,15.20
2014,06,17,02,14,15.80
2014,06,17,02,15,16.40
2014,06,17,02,16,16.60
2014,06,17,02,17,16.90
2014,06,17,02,18,17.40
2014,06,17,02,19,14.60
2014,06,17,02,20,18.10
2014,06,17,02,21,16.20
2014,06,17,02,22,17.80
2014,06,17,02,23,17.60
2014,06,17,02,24,16.60
2014,06,17,02,25,18.00
2014,06,17,02,26,17.50
2014,06,17,02,27,16.90
2014,06,17,02,28,19.70
2014,06,17,02,29,15.60
2014,06,17,02,30,18.20
2014,06,17,02,31,16.90
2014,06,17,02,32,16.90
2014,06,17,02,33,16.50
2014,06,17,02,34,16.30
2014,06,17,02,35,17.60
2014,06,17,02,36,16.10
2014,06,17,02,37,17.80
2014,06,17,02,38,18.70
2014,06,17,02,39,18.40
2014,06,17,02,40,17.20
2014,06,17,02,41,16.70
2014,06,17,02,42,12.60
2014,06,17,02,43,15.50
2014,06,17,02,44,14.90
2014,06,17,02,45,15.40
2014,06,17,02,46,16.20
2014,06,17,02,47,11.80
2014,06,17,02,48,13.70
2014,06,17,02,49,14.10
2014,06,17,02,50,11.90
2014,06,17,02,51,12.90
2014,06,17,02,52,12.40
2014,06,17,02,53,13.00
2014,06,17,02,54,10.30
2014,06,17,02,55,10.10
2014,06,17,02,56,11.30
2014,06,17,02,57,10.30
2014,06,17,02,58,11.30
2014,06,17,02,59,11.10
2014,06,17,03,00,10.20
2014,06,17,03,01,10.50
2014,06,17,03,02,10.20
2014,06,17,03,03,8.60
2014,06,17,03,04,9.80
2014,06,17,03,05,10.30
2014,06,17,03,06,10.10
2014,06,17,03,07,10.30
2014,06,17,03,08,8.80
2014,06,17,03,09,7.90
2014,06,17,03,10,9.70
2014,06,17,03,11,10.80
2014,06,17,03,12,12.30
2014,06,17,03,13,11.90
2014,06,17,03,14,11.60
2014,06,17,03,15,11.30
2014,06,17,03,16,12.30
2014,06,17,03,17,11.40
2014,06,17,03,18,10.50
2014,06,17,03,19,12.20
2014,06,17,03,20,11.20
2014,06,17,03,21,12.30
2014,06,17,03,22,14.70
2014,06,17,03,23,14.20
2014,06,17,03,24,14.70
2014,06,17,03,25,13.80
2014,06,17,03,26,12.80
2014,06,17,03,27,11.10
2014,06,17,03,28,13.00
2014,06,17,03,29,13.70
2014,06,17,03,30,11.60
2014,06,17,03,31,9.40
2014,06,17,03,32,7.90
2014,06,17,03,33,8.60
2014,06,17,03,34,9.40
2014,06,17,03,35,9.40
2014,06,17,03,36,9.40
2014,06,17,03,37,8.50
2014,06,17,03,38,10.60
2014,06,17,03,39,12.80
2014,06,17,03,40,10.80
2014,06,17,03,41,8.70
2014,06,17,03,42,10.50
2014,06,17,03,43,10.10
2014,06,17,03,44,8.10
2014,06,17,03,45,10.30
2014,06,17,03,46,9.30
2014,06,17,03,47,9.80
2014,06,17,03,48,11.10
2014,06,17,03,49,9.20
2014,06,17,03,50,10.30
2014,06,17,03,51,9.70
2014,06,17,03,52,10.60
2014,06,17,03,53,8.70
2014,06,17,03,54,11.20
2014,06,17,03,55,10.60
2014,06,17,03,56,10.10
2014,06,17,03,57,9.00
2014,06,17,03,58,10.60
2014,06,17,03,59,9.10
2014,06,17,04,00,8.80
2014,06,17,04,01,10.20
2014,06,17,04,02,12.20
2014,06,17,04,03,10.70
2014,06,17,04,04,10.80
2014,06,17,04,05,13.90
2014,06,17,04,06,13.80
2014,06,17,04,07,12.00
2014,06,17,04,08,10.30
2014,06,17,04,09,10.20
2014,06,17,04,10,6.80
2014,06,17,04,11,7.60
2014,06,17,04,12,8.90
2014,06,17,04,13,9.90
2014,06,17,04,14,8.80
2014,06,17,04,15,10.00
2014,06,17,04,16,10.90
2014,06,17,04,17,9.70
2014,06,17,04,18,10.70
2014,06,17,04,19,9.70
2014,06,17,04,20,8.80
2014,06,17,04,21,7.20
2014,06,17,04,22,7.80
2014,06,17,04,23,5.70
2014,06,17,04,24,8.60
2014,06,17,04,25,9.90
2014,06,17,04,26,10.10
2014,06,17,04,27,8.10
2014,06,17,04,28,10.00
2014,06,17,04,29,11.00
2014,06,17,04,30,11.70
2014,06,17,04,31,11.00
2014,06,17,04,32,10.20
2014,06,17,04,33,9.90
2014,06,17,04,34,7.80
2014,06,17,04,35,9.50
2014,06,17,04,36,8.70
2014,06,17,04,37,8.90
2014,06,17,04,38,8.90
2014,06,17,04,39,9.80
2014,06,17,04,40,9.50
2014,06,17,04,41,9.50
2014,06,17,04,42,6.30
2014,06,17,04,43,9.30
2014,06,17,04,44,9.10
2014,06,17,04,45,10.10
2014,06,17,04,46,9.90
2014,06,17,04,47,9.60
2014,06,17,04,48,7.50
2014,06,17,04,49,7.80
2014,06,17,04,50,8.00
2014,06,17,04,51,8.50
2014,06,17,04,52,11.00
2014,06,17,04,53,11.30
2014,06,17,04,54,8.50
2014,06,17,04,55,10.20
2014,06,17,04,56,7.70
2014,06,17,04,57,8.50
2014,06,17,04,58,6.60
2014,06,17,04,59,7.70
2014,06,17,05,00,6.80
2014,06,17,05,01,6.70
2014,06,17,05,02,2.20
2014,06,17,05,03,3.80
2014,06,17,05,04,7.20
2014,06,17,05,05,4.80
2014,06,17,05,06,3.40
2014,06,17,05,07,3.60
2014,06,17,05,08,4.90
2014,06,17,05,09,8.40
2014,06,17,05,10,12.20
2014,06,17,05,11,13.10
2014,06,17,05,12,12.90
2014,06,17,05,13,15.10
2014,06,17,05,14,15.20
2014,06,17,05,15,13.60
2014,06,17,05,16,14.90
2014,06,17,05,17,10.20
2014,06,17,05,18,11.00
2014,06,17,05,19,7.80
2014,06,17,05,20,7.70
2014,06,17,05,21,8.10
2014,06,17,05,22,8.40
2014,06,17,05,23,9.30
2014,06,17,05,24,8.90
2014,06,17,05,25,8.00
2014,06,17,05,26,9.10
2014,06,17,05,27,7.10
2014,06,17,05,28,7.70
2014,06,17,05,29,7.50
2014,06,17,05,30,9.10
2014,06,17,05,31,8.10
2014,06,17,05,32,7.40
2014,06,17,05,33,7.30
2014,06,17,05,34,7.50
2014,06,17,05,35,6.10
2014,06,17,05,36,8.00
2014,06,17,05,37,8.60
2014,06,17,05,38,9.70
2014,06,17,05,39,9.00
2014,06,17,05,40,7.50
2014,06,17,05,41,8.40
2014,06,17,05,42,8.20
2014,06,17,05,43,10.20
2014,06,17,05,44,10.00
2014,06,17,05,45,10.20
2014,06,17,05,46,9.40
2014,06,17,05,47,8.10
2014,06,17,05,48,8.30
2014,06,17,05,49,7.10
2014,06,17,05,50,9.30
2014,06,17,05,51,9.10
2014,06,17,05,52,8.90
2014,06,17,05,53,9.70
2014,06,17,05,54,8.60
2014,06,17,05,55,7.80
2014,06,17,05,56,8.80
2014,06,17,05,57,8.70
2014,06,17,05,58,8.00
2014,06,17,05,59,7.30
2014,06,17,06,00,7.90
2014,06,17,06,01,6.50
2014,06,17,06,02,6.40
2014,06,17,06,03,5.40
2014,06,17,06,04,6.30
2014,06,17,06,05,6.60
2014,06,17,06,06,6.60
2014,06,17,06,07,6.10
2014,06,17,06,08,7.30
2014,06,17,06,09,7.40
2014,06,17,06,10,7.70
2014,06,17,06,11,6.10
2014,06,17,06,12,8.40
2014,06,17,06,13,6.00
2014,06,17,06,14,5.80
2014,06,17,06,15,3.90
2014,06,17,06,16,7.30
2014,06,17,06,17,5.70
2014,06,17,06,18,5.90
2014,06,17,06,19,4.80
2014,06,17,06,20,9.20
2014,06,17,06,21,7.30
2014,06,17,06,22,6.10
2014,06,17,06,23,1.10
2014,06,17,06,24,1.50
2014,06,17,06,25,4.70
2014,06,17,06,26,5.60
2014,06,17,06,27,4.00
2014,06,17,06,28,3.10
2014,06,17,06,29,3.40
2014,06,17,06,30,5.70
2014,06,17,06,31,3.50
2014,06,17,06,32,4.80
2014,06,17,06,33,5.60
2014,06,17,06,34,7.20
2014,06,17,06,35,3.90
2014,06,17,06,36,6.70
2014,06,17,06,37,6.70
2014,06,17,06,38,6.00
2014,06,17,06,39,6.50
2014,06,17,06,40,8.60
2014,06,17,06,41,4.30
2014,06,17,06,42,6.40
2014,06,17,06,43,4.70
2014,06,17,06,44,5.30
2014,06,17,06,45,8.00
2014,06,17,06,46,3.90
2014,06,17,06,47,4.20
2014,06,17,06,48,5.90
2014,06,17,06,49,3.50
2014,06,17,06,50,4.00
2014,06,17,06,51,5.70
2014,06,17,06,52,5.30
2014,06,17,06,53,5.60
2014,06,17,06,54,6.80
2014,06,17,06,55,6.40
2014,06,17,06,56,6.40
2014,06,17,06,57,8.50
2014,06,17,06,58,2.80
2014,06,17,06,59,5.40
2014,06,17,07,00,5.80
2014,06,17,07,01,9.30
2014,06,17,07,02,5.80
2014,06,17,07,03,3.40
2014,06,17,07,04,4.40
2014,06,17,07,05,6.40
2014,06,17,07,06,7.20
2014,06,17,07,07,7.60
2014,06,17,07,08,6.80
2014,06,17,07,09,5.60
2014,06,17,07,10,7.40
2014,06,17,07,11,7.10
2014,06,17,07,12,6.80
2014,06,17,07,13,6.60
2014,06,17,07,14,7.60
2014,06,17,07,15,7.70
2014,06,17,07,16,2.70
2014,06,17,07,17,5.90
2014,06,17,07,18,8.10
2014,06,17,07,19,8.40
2014,06,17,07,20,6.90
2014,06,17,07,21,9.20
2014,06,17,07,22,8.70
2014,06,17,07,23,7.60
2014,06,17,07,24,8.30
2014,06,17,07,25,9.20
2014,06,17,07,26,6.70
2014,06,17,07,27,8.20
2014,06,17,07,28,9.20
2014,06,17,07,29,8.30
2014,06,17,07,30,8.00
2014,06,17,07,31,7.50
2014,06,17,07,32,7.00
2014,06,17,07,33,6.60
2014,06,17,07,34,6.70
2014,06,17,07,35,7.30
2014,06,17,07,36,7.70
2014,06,17,07,37,5.90
2014,06,17,07,38,7.00
2014,06,17,07,39,7.00
2014,06,17,07,40,7.00
2014,06,17,07,41,5.30
2014,06,17,07,42,5.80
2014,06,17,07,43,5.30
2014,06,17,07,44,5.40
2014,06,17,07,45,5.80
2014,06,17,07,46,4.20
2014,06,17,07,47,8.80
2014,06,17,07,48,6.40
2014,06,17,07,49,5.90
2014,06,17,07,50,9.00
2014,06,17,07,51,7.20
2014,06,17,07,52,6.70
2014,06,17,07,53,8.10
2014,06,17,07,54,9.00
2014,06,17,07,55,8.20
2014,06,17,07,56,7.10
2014,06,17,07,57,7.50
2014,06,17,07,58,7.00
2014,06,17,07,59,7.80
2014,06,17,08,00,6.70
2014,06,17,08,01,7.40
2014,06,17,08,02,7.40
2014,06,17,08,03,6.90
2014,06,17,08,04,6.70
2014,06,17,08,05,7.00
2014,06,17,08,06,6.30
2014,06,17,08,07,4.90
2014,06,17,08,08,5.90
2014,06,17,08,09,6.40
2014,06,17,08,10,6.20
2014,06,17,08,11,4.20
2014,06,17,08,12,6.40
2014,06,17,08,13,5.10
2014,06,17,08,14,5.70
2014,06,17,08,15,4.00
2014,06,17,08,16,3.90
2014,06,17,08,17,4.30
2014,06,17,08,18,5.10
2014,06,17,08,19,4.00
2014,06,17,08,20,5.00
2014,06,17,08,21,5.40
2014,06,17,08,22,4.40
2014,06,17,08,23,4.10
2014,06,17,08,24,3.40
2014,06,17,08,25,3.20
2014,06,17,08,26,4.30
2014,06,17,08,27,2.50
2014,06,17,08,28,2.50
2014,06,17,08,29,1.30
2014,06,17,08,30,1.00
2014,06,17,08,31,1.80
2014,06,17,08,32,1.50
2014,06,17,08,33,0.50
2014,06,17,08,34,0.00
2014,06,17,08,35,0.00
2014,06,17,08,36,0.00
2014,06,17,08,37,1.50
2014,06,17,08,38,1.70
2014,06,17,08,39,4.10
2014,06,17,08,40,5.00
2014,06,17,08,41,5.60
2014,06,17,08,42,4.90
2014,06,17,08,43,6.10
2014,06,17,08,44,4.40
2014,06,17,08,45,3.70
2014,06,17,08,46,3.00
2014,06,17,08,47,2.40
2014,06,17,08,48,2.70
2014,06,17,08,49,3.10
2014,06,17,08,50,3.10
2014,06,17,08,51,5.50
2014,06,17,08,52,6.30
2014,06,17,08,53,7.20
2014,06,17,08,54,7.20
2014,06,17,08,55,9.40
2014,06,17,08,56,8.20
2014,06,17,08,57,6.00
2014,06,17,08,58,4.30
2014,06,17,08,59,6.00
2014,06,17,09,00,6.30
2014,06,17,09,01,6.40
2014,06,17,09,02,5.50
2014,06,17,09,03,4.50
2014,06,17,09,04,6.00
2014,06,17,09,05,6.20
2014,06,17,09,06,4.90
2014,06,17,09,07,5.80
2014,06,17,09,08,5.30
2014,06,17,09,09,4.80
2014,06,17,09,10,3.90
2014,06,17,09,11,4.10
2014,06,17,09,12,4.50
2014,06,17,09,13,3.50
2014,06,17,09,14,4.50
2014,06,17,09,15,3.40
2014,06,17,09,16,3.00
2014,06,17,09,17,3.40
2014,06,17,09,18,3.70
2014,06,17,09,19,3.90
2014,06,17,09,20,4.50
2014,06,17,09,21,3.20
2014,06,17,09,22,4.40
2014,06,17,09,23,5.70
2014,06,17,09,24,7.40
2014,06,17,09,25,4.10
2014,06,17,09,26,3.40
2014,06,17,09,27,3.40
2014,06,17,09,28,3.80
2014,06,17,09,29,6.70
2014,06,17,09,30,5.30
2014,06,17,09,31,4.40
2014,06,17,09,32,3.10
2014,06,17,09,33,1.70
2014,06,17,09,34,1.40
2014,06,17,09,35,1.80
2014,06,17,09,36,2.10
2014,06,17,09,37,4.40
2014,06,17,09,38,4.10
2014,06,17,09,39,0.90
2014,06,17,09,40,0.40
2014,06,17,09,41,0.20
2014,06,17,09,42,3.30
2014,06,17,09,43,3.70
2014,06,17,09,44,1.50
2014,06,17,09,45,4.00
2014,06,17,09,46,3.30
2014,06,17,09,47,3.40
2014,06,17,09,48,3.70
2014,06,17,09,49,3.10
2014,06,17,09,50,0.90
2014,06,17,09,51,2.10
2014,06,17,09,52,2.20
2014,06,17,09,53,1.30
2014,06,17,09,54,1.10
2014,06,17,09,55,3.10
2014,06,17,09,56,5.20
2014,06,17,09,57,6.90
2014,06,17,09,58,6.20
2014,06,17,09,59,6.60
2014,06,17,10,00,3.50
2014,06,17,10,01,6.60
2014,06,17,10,02,7.50
2014,06,17,10,03,7.80
2014,06,17,10,04,5.60
2014,06,17,10,05,8.10
2014,06,17,10,06,6.90
2014,06,17,10,07,3.90
2014,06,17,10,08,6.50
2014,06,17,10,09,3.10
2014,06,17,10,10,2.70
2014,06,17,10,11,3.90
2014,06,17,10,12,8.10
2014,06,17,10,13,7.20
2014,06,17,10,14,8.90
2014,06,17,10,15,5.40
2014,06,17,10,16,8.10
2014,06,17,10,17,8.50
2014,06,17,10,18,8.00
2014,06,17,10,19,6.60
2014,06,17,10,20,9.00
2014,06,17,10,21,6.10
2014,06,17,10,22,6.70
2014,06,17,10,23,3.50
2014,06,17,10,24,2.40
2014,06,17,10,25,6.00
2014,06,17,10,26,4.60
2014,06,17,10,27,7.80
2014,06,17,10,28,8.50
2014,06,17,10,29,5.40
2014,06,17,10,30,6.80
2014,06,17,10,31,9.10
2014,06,17,10,32,8.40
2014,06,17,10,33,6.70
2014,06,17,10,34,5.40
2014,06,17,10,35,7.70
2014,06,17,10,36,9.60
2014,06,17,10,37,9.20
2014,06,17,10,38,8.90
2014,06,17,10,39,10.50
2014,06,17,10,40,7.10
2014,06,17,10,41,6.00
2014,06,17,10,42,9.70
2014,06,17,10,43,8.30
2014,06,17,10,44,5.20
2014,06,17,10,45,5.80
2014,06,17,10,46,5.30
2014,06,17,10,47,1.90
2014,06,17,10,48,2.10
2014,06,17,10,49,6.10
2014,06,17,10,50,6.20
2014,06,17,10,51,5.40
2014,06,17,10,52,7.10
2014,06,17,10,53,3.10
2014,06,17,10,54,3.10
2014,06,17,10,55,4.40
2014,06,17,10,56,3.90
2014,06,17,10,57,5.20
2014,06,17,10,58,5.00
2014,06,17,10,59,9.40
2014,06,17,11,00,7.70
2014,06,17,11,01,7.70
2014,06,17,11,02,5.70
2014,06,17,11,03,11.60
2014,06,17,11,04,8.40
2014,06,17,11,05,8.70
2014,06,17,11,06,8.80
2014,06,17,11,07,8.30
2014,06,17,11,08,8.00
2014,06,17,11,09,8.90
2014,06,17,11,10,11.80
2014,06,17,11,11,7.50
2014,06,17,11,12,8.10
2014,06,17,11,13,6.30
2014,06,17,11,14,3.90
2014,06,17,11,15,5.40
2014,06,17,11,16,3.30
2014,06,17,11,17,4.50
2014,06,17,11,18,3.90
2014,06,17,11,19,5.20
2014,06,17,11,20,9.00
2014,06,17,11,21,7.80
2014,06,17,11,22,7.00
2014,06,17,11,23,7.80
2014,06,17,11,24,3.80
2014,06,17,11,25,9.00
2014,06,17,11,26,10.30
2014,06,17,11,27,8.10
2014,06,17,11,28,7.00
2014,06,17,11,29,3.70
2014,06,17,11,30,3.40
2014,06,17,11,31,9.30
2014,06,17,11,32,11.60
2014,06,17,11,33,13.60
2014,06,17,11,34,5.80
2014,06,17,11,35,7.50
2014,06,17,11,36,4.90
2014,06,17,11,37,10.60
2014,06,17,11,38,13.10
2014,06,17,11,39,8.00
2014,06,17,11,40,6.40
2014,06,17,11,41,8.00
2014,06,17,11,42,9.40
2014,06,17,11,43,8.40
2014,06,17,11,44,10.00
2014,06,17,11,45,4.80
2014,06,17,11,46,10.20
2014,06,17,11,47,11.20
2014,06,17,11,48,10.40
2014,06,17,11,49,13.40
2014,06,17,11,50,10.80
2014,06,17,11,51,7.20
2014,06,17,11,52,11.40
2014,06,17,11,53,16.40
2014,06,17,11,54,13.90
2014,06,17,11,55,14.30
2014,06,17,11,56,11.80
2014,06,17,11,57,13.20
2014,06,17,11,58,19.10
2014,06,17,11,59,15.90
2014,06,17,12,00,10.90
2014,06,17,12,01,8.50
2014,06,17,12,02,7.10
2014,06,17,12,03,5.10
2014,06,17,12,04,14.20
2014,06,17,12,05,6.90
2014,06,17,12,06,6.90
2014,06,17,12,07,4.40
2014,06,17,12,08,9.60
2014,06,17,12,09,19.50
2014,06,17,12,10,9.20
2014,06,17,12,11,8.90
2014,06,17,12,12,8.60
2014,06,17,12,13,12.60
2014,06,17,12,14,7.90
2014,06,17,12,15,7.00
2014,06,17,12,16,10.70
2014,06,17,12,17,11.30
2014,06,17,12,18,7.60
2014,06,17,12,19,2.10
2014,06,17,12,20,11.30
2014,06,17,12,21,11.60
2014,06,17,12,22,11.70
2014,06,17,12,23,10.60
2014,06,17,12,24,9.70
2014,06,17,12,25,6.70
2014,06,17,12,26,8.90
2014,06,17,12,27,6.00
2014,06,17,12,28,3.20
2014,06,17,12,29,2.10
2014,06,17,12,30,6.10
2014,06,17,12,31,3.30
2014,06,17,12,32,13.80
2014,06,17,12,33,14.10
2014,06,17,12,34,10.90
2014,06,17,12,35,10.00
2014,06,17,12,36,11.70
2014,06,17,12,37,12.70
2014,06,17,12,38,13.50
2014,06,17,12,39,8.10
2014,06,17,12,40,10.70
2014,06,17,12,41,15.70
2014,06,17,12,42,17.20
2014,06,17,12,43,16.60
2014,06,17,12,44,15.90
2014,06,17,12,45,11.60
2014,06,17,12,46,9.70
2014,06,17,12,47,15.40
2014,06,17,12,48,15.70
2014,06,17,12,49,12.70
2014,06,17,12,50,12.90
2014,06,17,12,51,5.00
2014,06,17,12,52,15.60
2014,06,17,12,53,6.50
2014,06,17,12,54,4.10
2014,06,17,12,55,3.80
2014,06,17,12,56,11.30
2014,06,17,12,57,10.60
2014,06,17,12,58,9.10
2014,06,17,12,59,14.90
2014,06,17,13,00,13.10
2014,06,17,13,01,12.90
2014,06,17,13,02,9.70
2014,06,17,13,03,11.40
2014,06,17,13,04,8.00
2014,06,17,13,05,11.10
2014,06,17,13,06,10.80
2014,06,17,13,07,13.20
2014,06,17,13,08,13.00
2014,06,17,13,09,13.20
2014,06,17,13,10,17.80
2014,06,17,13,11,14.20
2014,06,17,13,12,14.10
2014,06,17,13,13,13.20
2014,06,17,13,14,12.90
2014,06,17,13,15,15.30
2014,06,17,13,16,13.40
2014,06,17,13,17,8.30
2014,06,17,13,18,7.10
2014,06,17,13,19,1.80
2014,06,17,13,20,8.50
2014,06,17,13,21,11.70
2014,06,17,13,22,13.30
2014,06,17,13,23,18.60
2014,06,17,13,24,16.80
2014,06,17,13,25,11.90
2014,06,17,13,26,11.70
2014,06,17,13,27,12.30
2014,06,17,13,28,8.80
2014,06,17,13,29,12.10
2014,06,17,13,30,11.30
2014,06,17,13,31,13.90
2014,06,17,13,32,8.90
2014,06,17,13,33,8.20
2014,06,17,13,34,9.80
2014,06,17,13,35,13.30
2014,06,17,13,36,11.30
2014,06,17,13,37,12.60
2014,06,17,13,38,15.20
2014,06,17,13,39,8.30
2014,06,17,13,40,14.90
2014,06,17,13,41,12.00
2014,06,17,13,42,17.50
2014,06,17,13,43,15.90
2014,06,17,13,44,9.40
2014,06,17,13,45,12.20
2014,06,17,13,46,17.20
2014,06,17,13,47,17.20
2014,06,17,13,48,17.20
2014,06,17,13,49,14.80
2014,06,17,13,50,15.90
2014,06,17,13,51,15.70
2014,06,17,13,52,10.60
2014,06,17,13,53,11.00
2014,06,17,13,54,9.70
2014,06,17,13,55,16.50
2014,06,17,13,56,16.40
2014,06,17,13,57,15.70
2014,06,17,13,58,12.10
2014,06,17,13,59,16.80
2014,06,17,14,00,18.00
2014,06,17,14,01,17.60
2014,06,17,14,02,19.30
2014,06,17,14,03,11.60
2014,06,17,14,04,15.30
2014,06,17,14,05,17.80
2014,06,17,14,06,13.60
2014,06,17,14,07,11.30
2014,06,17,14,08,9.00
2014,06,17,14,09,13.60
2014,06,17,14,10,10.70
2014,06,17,14,11,15.90
2014,06,17,14,12,10.30
2014,06,17,14,13,8.00
2014,06,17,14,14,8.90
2014,06,17,14,15,12.80
2014,06,17,14,16,8.50
2014,06,17,14,17,19.00
2014,06,17,14,18,6.30
2014,06,17,14,19,11.00
2014,06,17,14,20,3.80
2014,06,17,14,21,7.20
2014,06,17,14,22,5.80
2014,06,17,14,23,16.10
2014,06,17,14,24,8.80
2014,06,17,14,25,14.60
2014,06,17,14,26,17.00
2014,06,17,14,27,15.90
2014,06,17,14,28,11.90
2014,06,17,14,29,8.40
2014,06,17,14,30,7.70
2014,06,17,14,31,11.50
2014,06,17,14,32,12.10
2014,06,17,14,33,7.80
2014,06,17,14,34,12.00
2014,06,17,14,35,15.80
2014,06,17,14,36,21.10
2014,06,17,14,37,20.30
2014,06,17,14,38,22.50
2014,06,17,14,39,22.10
2014,06,17,14,40,20.30
2014,06,17,14,41,20.60
2014,06,17,14,42,19.20
2014,06,17,14,43,21.50
2014,06,17,14,44,21.30
2014,06,17,14,45,20.80
2014,06,17,14,46,22.40
2014,06,17,14,47,17.50
2014,06,17,14,48,19.40
2014,06,17,14,49,21.70
2014,06,17,14,50,20.00
2014,06,17,14,51,19.40
2014,06,17,14,52,11.60
2014,06,17,14,53,6.90
2014,06,17,14,54,12.30
2014,06,17,14,55,10.80
2014,06,17,14,56,19.50
2014,06,17,14,57,23.30
2014,06,17,14,58,20.40
2014,06,17,14,59,16.40
2014,06,17,15,00,14.30
2014,06,17,15,01,18.80
2014,06,17,15,02,11.10
2014,06,17,15,03,16.90
2014,06,17,15,04,15.00
2014,06,17,15,05,16.00
2014,06,17,15,06,12.60
2014,06,17,15,07,12.00
2014,06,17,15,08,9.60
2014,06,17,15,09,16.70
2014,06,17,15,10,17.00
2014,06,17,15,11,20.80
2014,06,17,15,12,22.70
2014,06,17,15,13,18.50
2014,06,17,15,14,16.10
2014,06,17,15,15,21.90
2014,06,17,15,16,23.10
2014,06,17,15,17,21.70
2014,06,17,15,18,17.80
2014,06,17,15,19,25.50
2014,06,17,15,20,26.70
2014,06,17,15,21,25.70
2014,06,17,15,22,23.30
2014,06,17,15,23,22.80
2014,06,17,15,24,16.90
2014,06,17,15,25,16.50
2014,06,17,15,26,26.10
2014,06,17,15,27,28.10
2014,06,17,15,28,30.50
2014,06,17,15,29,27.30
2014,06,17,15,30,29.70
2014,06,17,15,31,27.70
2014,06,17,15,32,27.90
2014,06,17,15,33,28.90
2014,06,17,15,34,21.60
2014,06,17,15,35,18.90
2014,06,17,15,36,22.30
2014,06,17,15,37,16.90
2014,06,17,15,38,24.60
2014,06,17,15,39,21.60
2014,06,17,15,40,21.80
2014,06,17,15,41,22.60
2014,06,17,15,42,23.60
2014,06,17,15,43,25.90
2014,06,17,15,44,24.10
2014,06,17,15,45,26.30
2014,06,17,15,46,21.70
2014,06,17,15,47,20.60
2014,06,17,15,48,23.10
2014,06,17,15,49,24.10
2014,06,17,15,50,27.60
2014,06,17,15,51,30.40
2014,06,17,15,52,27.00
2014,06,17,15,53,24.80
2014,06,17,15,54,18.40
2014,06,17,15,55,24.30
2014,06,17,15,56,24.90
2014,06,17,15,57,31.10
2014,06,17,15,58,31.20
2014,06,17,15,59,30.90
2014,06,17,16,00,24.10
2014,06,17,16,01,22.10
2014,06,17,16,02,20.60
2014,06,17,16,03,15.50
2014,06,17,16,04,23.60
2014,06,17,16,05,25.70
2014,06,17,16,06,24.20
2014,06,17,16,07,25.30
2014,06,17,16,08,28.60
2014,06,17,16,09,25.80
2014,06,17,16,10,25.20
2014,06,17,16,11,23.60
2014,06,17,16,12,26.30
2014,06,17,16,13,23.60
2014,06,17,16,14,22.20
2014,06,17,16,15,20.00
2014,06,17,16,16,0.00
2014,06,17,16,17,0.00
2014,06,17,16,18,0.00
2014,06,17,16,19,0.00
2014,06,17,16,20,0.00
2014,06,17,16,21,0.00
2014,06,17,16,22,0.00
2014,06,17,16,23,0.00
2014,06,17,16,24,0.00
2014,06,17,16,25,0.00
2014,06,17,16,26,0.00
2014,06,17,16,27,0.00
2014,06,17,16,28,0.00
2014,06,17,16,29,0.00
2014,06,17,16,30,0.00
2014,06,17,16,31,0.00
2014,06,17,16,32,0.00
2014,06,17,16,33,0.00
2014,06,17,16,34,0.00
2014,06,17,16,35,0.00
2014,06,17,16,36,0.00
2014,06,17,16,37,0.00
2014,06,17,16,38,0.00
2014,06,17,16,39,0.00
2014,06,17,16,40,0.00
2014,06,17,16,41,0.00
2014,06,17,16,42,0.00
2014,06,17,16,43,0.00
2014,06,17,16,44,0.00
2014,06,17,16,45,0.00
2014,06,17,16,46,0.00
2014,06,17,16,47,0.00
2014,06,17,16,48,0.00
2014,06,17,16,49,0.00
2014,06,17,16,50,0.00
2014,06,17,16,51,0.00
2014,06,17,16,52,0.00
2014,06,17,16,53,0.00
2014,06,17,16,54,0.00
2014,06,17,16,55,0.00
2014,06,17,16,56,0.00
2014,06,17,16,57,0.00
2014,06,17,16,58,0.00
2014,06,17,16,59,0.00
2014,06,17,17,00,0.00
2014,06,17,17,01,0.00
2014,06,17,17,02,0.00
2014,06,17,17,03,0.00
2014,06,17,17,04,0.00
2014,06,17,17,05,0.00
2014,06,17,17,06,0.00
2014,06,17,17,07,0.00
2014,06,17,17,08,0.00
2014,06,17,17,09,0.00
2014,06,17,17,10,0.00
2014,06,17,17,11,0.00
2014,06,17,17,12,0.00
2014,06,17,17,13,0.00
2014,06,17,17,14,0.00
2014,06,17,17,15,0.00
2014,06,17,17,16,0.00
2014,06,17,17,17,0.00
2014,06,17,17,18,0.00
2014,06,17,17,19,0.00
2014,06,17,17,20,0.00
2014,06,17,17,21,0.00
2014,06,17,17,22,0.00
2014,06,17,17,23,0.00
2014,06,17,17,24,0.00
2014,06,17,17,25,0.00
2014,06,17,17,26,0.00
2014,06,17,17,27,0.00
2014,06,17,17,28,0.00
2014,06,17,17,29,0.00
2014,06,17,17,30,0.00
2014,06,17,17,31,0.00
2014,06,17,17,32,0.00
2014,06,17,17,33,0.00
2014,06,17,17,34,0.00
2014,06,17,17,35,0.00
2014,06,17,17,36,0.00
2014,06,17,17,37,0.00
2014,06,17,17,38,0.00
2014,06,17,17,39,0.00
2014,06,17,17,40,0.00
2014,06,17,17,41,0.00
2014,06,17,17,42,0.00
2014,06,17,17,43,0.00
2014,06,17,17,44,0.00
2014,06,17,17,45,0.00